This is the latest recevied weather packets stored in our database for station/object KN6WGU. If no packets are shown the sender has not sent any weather packets the latest 1 day(s).
| Time | Temp. | Humidity | Pressure | Rain* | Wind** | Luminosity | Snow |
|---|---|---|---|---|---|---|---|
| 1778033665 | 9.44° C | 99% | 1002.5 hPa | 4.32 mm | - | 0 W/m² | - |
| 1778033362 | 9.44° C | 99% | 1002.3 hPa | 4.83 mm | - | 0 W/m² | - |
| 1778033060 | 9.44° C | 99% | 1002.3 hPa | 3.05 mm | - | 0 W/m² | - |
| 1778032757 | 9.44° C | 99% | 1002.5 hPa | 3.05 mm | - | 0 W/m² | - |
| 1778032454 | 9.44° C | 99% | 1002.2 hPa | 3.56 mm | - | 0 W/m² | - |
| 1778032151 | 9.44° C | 99% | 1002.1 hPa | 1.78 mm | - | 0 W/m² | - |
| 1778031848 | 9.44° C | 99% | 1002.2 hPa | 0 mm | - | 0 W/m² | - |
| 1778030938 | 9.44° C | 99% | 1001.9 hPa | 3.05 mm | - | 0 W/m² | - |
| 1778030635 | 9.44° C | 99% | 1001.9 hPa | 1.78 mm | - | 0 W/m² | - |
| 1778030332 | 9.44° C | 99% | 1001.8 hPa | 1.27 mm | - | 0 W/m² | - |
| 1778029726 | 9.44° C | 99% | 1001.8 hPa | 1.78 mm | - | 0 W/m² | - |
| 1778029425 | 9.44° C | 99% | 1001.8 hPa | 1.78 mm | - | 0 W/m² | - |
| 1778029121 | 9.44° C | 99% | 1001.9 hPa | 0 mm | - | 0 W/m² | - |
| 1778028818 | 9.44° C | 99% | 1001.8 hPa | 1.27 mm | - | 0 W/m² | - |
| 1778028212 | 9.44° C | 99% | 1001.9 hPa | 1.78 mm | - | 0 W/m² | - |
| 1778027604 | 9.44° C | 99% | 1002 hPa | 3.05 mm | - | 0 W/m² | - |
| 1778026997 | 9.44° C | 99% | 1001.9 hPa | 3.05 mm | - | 0 W/m² | - |
| 1778026087 | 10° C | 99% | 1001.5 hPa | 3.05 mm | - | 2 W/m² | - |
| 1778025785 | 10° C | 99% | 1001.6 hPa | 4.83 mm | - | 1 W/m² | - |
| 1778025179 | 10° C | 99% | 1001.4 hPa | 4.83 mm | - | 2 W/m² | - |
| 1778024270 | 10° C | 99% | 1001.3 hPa | 1.27 mm | - | 7 W/m² | - |
| 1778023968 | 10° C | 99% | 1001.4 hPa | 1.78 mm | - | 6 W/m² | - |
| 1778022152 | 10° C | 99% | 1001.8 hPa | 6.1 mm | - | 18 W/m² | - |
| 1778021546 | 10° C | 98% | 1002.2 hPa | 7.87 mm | - | 8 W/m² | - |
| 1778020939 | 10° C | 98% | 1002 hPa | 4.32 mm | - | 13 W/m² | - |
* Rain latest hour (hover to see other rain measurements)
** Current wind speed in m/s (hover to see current wind gust speed)